GW3919 Weather Reports


Display with metric or nautical units.
time (UTC)temp
F
wind
direction
speed
MPH
gust
MPH
rain 1hr
in
rain 24hr
in
rain mn
in
humidity
%
barometer
mb
20260904203933 102 295 2.0 3.0 0.00 0.00 0.00 45 1012.3
20260904203429 101 293 3.0 4.0 0.00 0.00 0.00 47 1012.5
20260904202925 100 266 4.0 4.0 0.00 0.00 0.00 47 1012.4
20260904202421 99 296 4.0 6.0 0.00 0.00 0.00 48 1012.7
20260904201916 100 301 4.0 5.0 0.00 0.00 0.00 47 1012.6
20260904201411 101 326 3.0 5.0 0.00 0.00 0.00 47 1012.7
20260904200907 102 284 1.0 4.0 0.00 0.00 0.00 47 1012.8
20260904200405 100 233 2.0 4.0 0.00 0.00 0.00 48 1012.7
20260904195859 100 309 3.0 5.0 0.00 0.00 0.00 49 1012.9
20260904195357 100 308 4.0 5.0 0.00 0.00 0.00 48 1013.1
20260904194852 99 308 2.0 3.0 0.00 0.00 0.00 50 1013.2
20260904194351 98 321 2.0 3.0 0.00 0.00 0.00 50 1013.4
20260904193847 99 328 1.0 4.0 0.00 0.00 0.00 48 1013.5
20260904193342 99 114 1.0 6.0 0.00 0.00 0.00 49 1013.4
20260904192838 99 299 2.0 4.0 0.00 0.00 0.00 49 1013.5
20260904192333 96 287 2.0 5.0 0.00 0.00 0.00 52 1013.4
20260904191830 97 317 3.0 5.0 0.00 0.00 0.00 51 1013.5
20260904191326 98 264 1.0 5.0 0.00 0.00 0.00 51 1013.5
20260904190822 98 248 4.0 5.0 0.00 0.00 0.00 50 1013.6
20260904190317 99 346 1.0 5.0 0.00 0.00 0.00 51 1013.7
20260904185814 99 244 0.0 3.0 0.00 0.00 0.00 50 1013.7
20260904185309 99 38 3.0 6.0 0.00 0.00 0.00 50 1013.7
20260904184808 98 241 4.0 5.0 0.00 0.00 0.00 51 1013.7
20260904184303 97 154 0.0 3.0 0.00 0.00 0.00 51 1013.7
20260904183759 97 287 1.0 3.0 0.00 0.00 0.00 51 1013.8
20260904183253 98 291 3.0 4.0 0.00 0.00 0.00 51 1013.8
20260904182749 96 282 3.0 5.0 0.00 0.00 0.00 54 1014.0
20260904182244 95 319 0.0 5.0 0.00 0.00 0.00 55 1014.3
20260904181739 97 307 1.0 4.0 0.00 0.00 0.00 53 1014.3
20260904181239 98 253 6.0 6.0 0.00 0.00 0.00 51 1014.3
20260904180734 97 327 1.0 2.0 0.00 0.00 0.00 52 1014.3
20260904180230 96 163 2.0 3.0 0.00 0.00 0.00 51 1014.5
20260904175729 96 260 2.0 4.0 0.00 0.00 0.00 51 1014.7
20260904175227 97 251 2.0 3.0 0.00 0.00 0.00 50 1014.6
20260904174722 97 83 2.0 4.0 0.00 0.00 0.00 50 1014.7
20260904174218 97 272 1.0 3.0 0.00 0.00 0.00 52 1014.5
20260904173714 97 285 2.0 3.0 0.00 0.00 0.00 52 1014.8
20260904173208 96 283 3.0 4.0 0.00 0.00 0.00 53 1014.9
20260904172705 96 248 3.0 4.0 0.00 0.00 0.00 53 1015.0
20260904172204 96 241 2.0 3.0 0.00 0.00 0.00 55 1015.1
20260904171700 95 269 5.0 5.0 0.00 0.00 0.00 56 1015.0
20260904171154 95 145 2.0 3.0 0.00 0.00 0.00 57 1015.1
20260904170651 95 299 2.0 3.0 0.00 0.00 0.00 57 1014.9
20260904170146 96 18 2.0 3.0 0.00 0.00 0.00 57 1015.2
20260904165645 95 305 2.0 2.0 0.00 0.00 0.00 58 1015.1
20260904165144 94 305 2.0 2.0 0.00 0.00 0.00 58 1015.4
20260904164639 94 326 2.0 5.0 0.00 0.00 0.00 59 1015.2
20260904164134 94 133 6.0 6.0 0.00 0.00 0.00 59 1015.1
20260904163630 93 322 4.0 6.0 0.00 0.00 0.00 61 1015.3
20260904163126 93 317 2.0 4.0 0.00 0.00 0.00 61 1015.3
20260904162620 93 257 1.0 4.0 0.00 0.00 0.00 62 1015.2
20260904162115 93 299 4.0 4.0 0.00 0.00 0.00 63 1015.2
20260904161610 93 228 0.0 4.0 0.00 0.00 0.00 64 1015.2
20260904161105 92 271 1.0 3.0 0.00 0.00 0.00 65 1015.2
20260904160601 92 310 0.0 3.0 0.00 0.00 0.00 65 1015.2
20260904160057 91 45 2.0 4.0 0.00 0.00 0.00 66 1015.2
20260904155555 90 311 3.0 5.0 0.00 0.00 0.00 69 1015.3
20260904155050 90 63 2.0 4.0 0.00 0.00 0.00 70 1015.5
20260904154543 90 5 2.0 4.0 0.00 0.00 0.00 69 1015.3
20260904154038 89 263 2.0 5.0 0.00 0.00 0.00 72 1015.3
20260904153538 89 296 6.0 6.0 0.00 0.00 0.00 71 1015.3
20260904153034 91 310 2.0 2.0 0.00 0.00 0.00 70 1015.1
20260904152530 89 310 4.0 4.0 0.00 0.00 0.00 73 1015.2
20260904152025 89 167 0.0 2.0 0.00 0.00 0.00 74 1015.0
20260904151514 89 248 2.0 3.0 0.00 0.00 0.00 74 1015.2
20260904151009 88 308 3.0 4.0 0.00 0.00 0.00 77 1015.2
20260904150508 88 262 2.0 3.0 0.00 0.00 0.00 76 1015.3
20260904150003 87 154 0.0 3.0 0.00 0.00 0.00 78 1015.2
20260904145458 87 328 3.0 5.0 0.00 0.00 0.00 78 1015.0
20260904144953 87 315 2.0 5.0 0.00 0.00 0.00 78 1014.9
20260904144448 87 337 2.0 3.0 0.00 0.00 0.00 80 1015.2
20260904143944 87 60 0.0 2.0 0.00 0.00 0.00 80 1015.2
20260904143440 86 219 1.0 3.0 0.00 0.00 0.00 81 1015.3
20260904142936 85 310 3.0 4.0 0.00 0.00 0.00 83 1015.3
20260904142433 85 323 2.0 4.0 0.00 0.00 0.00 84 1015.3
20260904141927 84 299 4.0 4.0 0.00 0.00 0.00 86 1015.1
20260904141422 83 283 3.0 4.0 0.00 0.00 0.00 87 1015.1
20260904140919 83 305 3.0 4.0 0.00 0.00 0.00 88 1015.1
20260904140418 83 294 2.0 3.0 0.00 0.00 0.00 88 1015.1
20260904135917 82 203 0.0 3.0 0.00 0.00 0.00 88 1015.1
20260904135417 82 264 2.0 2.0 0.00 0.00 0.00 89 1015.0
20260904134914 82 248 0.0 4.0 0.00 0.00 0.00 88 1015.0
20260904134413 83 264 2.0 3.0 0.00 0.00 0.00 88 1015.0
20260904133909 82 318 0.0 3.0 0.00 0.00 0.00 88 1014.8
20260904133409 82 291 7.0 7.0 0.00 0.00 0.00 88 1015.0
20260904132904 82 211 1.0 2.0 0.00 0.00 0.00 89 1014.7
20260904132359 81 278 1.0 3.0 0.00 0.00 0.00 90 1014.8
20260904131859 81 321 2.0 3.0 0.00 0.00 0.00 90 1014.8
20260904131354 80 320 2.0 2.0 0.00 0.00 0.00 91 1014.6
20260904130849 80 259 0.0 2.0 0.00 0.00 0.00 92 1014.7
20260904130348 79 347 2.0 2.0 0.00 0.00 0.00 93 1014.7
20260904125844 78 320 0.0 1.0 0.00 0.00 0.00 94 1014.7
20260904125340 77 307 0.0 2.0 0.00 0.00 0.00 96 1014.5
20260904124839 77 309 1.0 2.0 0.00 0.00 0.00 96 1014.6
20260904124335 77 283 1.0 2.0 0.00 0.00 0.00 97 1014.7
20260904123831 77 274 1.0 2.0 0.00 0.00 0.00 97 1014.5
20260904123326 77 286 1.0 2.0 0.00 0.00 0.00 96 1014.4
20260904122820 76 252 0.0 2.0 0.00 0.00 0.00 96 1014.6
20260904122315 76 253 0.0 2.0 0.00 0.00 0.00 96 1014.5
20260904121810 76 262 0.0 3.0 0.00 0.00 0.00 96 1014.3
20260904121306 76 288 3.0 3.0 0.00 0.00 0.00 96 1014.5
20260904120803 76 284 0.0 3.0 0.00 0.00 0.00 96 1014.4
20260904120258 76 316 2.0 3.0 0.00 0.00 0.00 96 1014.4
20260904115753 76 310 1.0 2.0 0.00 0.00 0.00 96 1014.3
20260904115248 76 237 3.0 3.0 0.00 0.00 0.00 96 1014.2
20260904114743 76 244 1.0 2.0 0.00 0.00 0.00 96 1014.2
20260904114242 76 230 0.0 2.0 0.00 0.00 0.00 95 1014.2
20260904113737 76 240 0.0 1.0 0.00 0.00 0.00 95 1014.1
20260904113237 76 334 0.0 1.0 0.00 0.00 0.00 95 1014.0
20260904112732 76 282 0.0 0.0 0.00 0.00 0.00 95 1014.1
20260904112227 76 1 0.0 2.0 0.00 0.00 0.00 95 1014.0
20260904111723 76 104 0.0 2.0 0.00 0.00 0.00 94 1014.1
20260904111219 76 279 1.0 2.0 0.00 0.00 0.00 94 1013.9
20260904110714 76 302 0.0 2.0 0.00 0.00 0.00 94 1014.1
20260904110213 76 315 0.0 1.0 0.00 0.00 0.00 94 1014.0
20260904105708 76 230 2.0 3.0 0.00 0.00 0.00 93 1013.8
20260904105203 76 226 2.0 2.0 0.00 0.00 0.00 93 1014.0
20260904104658 76 319 2.0 2.0 0.00 0.00 0.00 93 1014.1
20260904104154 76 309 2.0 2.0 0.00 0.00 0.00 93 1013.8
20260904103650 76 257 1.0 2.0 0.00 0.00 0.00 92 1013.7
20260904103145 77 282 1.0 3.0 0.00 0.00 0.00 92 1013.7
20260904102641 77 281 1.0 2.0 0.00 0.00 0.00 92 1013.7
20260904102136 77 300 3.0 3.0 0.00 0.00 0.00 92 1013.8
20260904101633 77 243 0.0 2.0 0.00 0.00 0.00 91 1013.7
20260904101128 77 230 0.0 2.0 0.00 0.00 0.00 91 1013.7
20260904100624 77 307 0.0 2.0 0.00 0.00 0.00 91 1013.7
20260904100119 77 265 0.0 2.0 0.00 0.00 0.00 91 1013.6
20260904095614 77 255 0.0 2.0 0.00 0.00 0.00 90 1013.7
20260904095108 77 241 0.0 2.0 0.00 0.00 0.00 90 1013.6
20260904094609 77 274 2.0 2.0 0.00 0.00 0.00 90 1013.5
20260904094103 78 255 0.0 2.0 0.00 0.00 0.00 90 1013.6
20260904093600 78 269 0.0 2.0 0.00 0.00 0.00 90 1013.5
20260904093055 78 320 0.0 1.0 0.00 0.00 0.00 90 1013.5
20260904092551 78 281 0.0 1.0 0.00 0.00 0.00 90 1013.6
20260904092047 78 37 0.0 1.0 0.00 0.00 0.00 90 1013.6
20260904091543 78 313 0.0 2.0 0.00 0.00 0.00 89 1013.6
20260904091042 78 205 0.0 0.0 0.00 0.00 0.00 89 1013.4
20260904090538 78 181 0.0 2.0 0.00 0.00 0.00 89 1013.8
20260904090033 78 240 0.0 1.0 0.00 0.00 0.00 89 1013.7
20260904085528 78 335 0.0 2.0 0.00 0.00 0.00 89 1013.7
20260904085028 78 269 0.0 1.0 0.00 0.00 0.00 88 1013.6
20260904084524 78 321 0.0 1.0 0.00 0.00 0.00 88 1013.7
20260904084020 78 283 1.0 1.0 0.00 0.00 0.00 88 1013.6
20260904083515 78 269 0.0 1.0 0.00 0.00 0.00 88 1013.6
20260904083011 78 157 0.0 2.0 0.00 0.00 0.00 88 1013.6
20260904082506 78 291 0.0 2.0 0.00 0.00 0.00 88 1013.5
20260904082001 78 245 0.0 1.0 0.00 0.00 0.00 88 1013.7
20260904081456 78 309 1.0 1.0 0.00 0.00 0.00 88 1013.6
20260904080952 78 310 0.0 1.0 0.00 0.00 0.00 87 1013.5
20260904080448 78 269 0.0 0.0 0.00 0.00 0.00 87 1013.5
20260904075943 78 349 0.0 1.0 0.00 0.00 0.00 87 1013.7
20260904075439 78 342 0.0 1.0 0.00 0.00 0.00 87 1013.4
20260904074938 78 252 0.0 1.0 0.00 0.00 0.00 87 1013.5
20260904074433 78 182 0.0 1.0 0.00 0.00 0.00 87 1013.4
20260904073928 78 269 0.0 1.0 0.00 0.00 0.00 86 1013.5
20260904073424 79 113 0.0 2.0 0.00 0.00 0.00 86 1013.4
20260904072919 79 54 0.0 1.0 0.00 0.00 0.00 86 1013.5
20260904072415 79 180 1.0 2.0 0.00 0.00 0.00 86 1013.5
20260904071910 79 314 0.0 2.0 0.00 0.00 0.00 86 1013.6
20260904071405 79 315 0.0 1.0 0.00 0.00 0.00 86 1013.3
20260904070900 79 257 0.0 2.0 0.00 0.00 0.00 85 1013.4
20260904070359 79 288 1.0 1.0 0.00 0.00 0.00 85 1013.5
20260904065854 79 281 0.0 1.0 0.00 0.00 0.00 85 1013.8
20260904065350 79 321 0.0 2.0 0.00 0.00 0.00 84 1013.7
20260904064850 79 321 1.0 2.0 0.00 0.00 0.00 84 1013.9
20260904064346 79 321 1.0 2.0 0.00 0.00 0.00 84 1013.9
20260904063841 79 261 0.0 3.0 0.00 0.00 0.00 84 1013.7
20260904063338 79 75 0.0 2.0 0.00 0.00 0.00 84 1013.8
20260904062838 79 312 1.0 2.0 0.00 0.00 0.00 84 1013.8
20260904062334 79 305 2.0 2.0 0.00 0.00 0.00 83 1013.8
20260904061829 80 252 0.0 2.0 0.00 0.00 0.00 83 1013.7
20260904061326 80 309 0.0 2.0 0.00 0.00 0.00 83 1013.6
20260904060821 80 310 2.0 2.0 0.00 0.00 0.00 83 1013.6
20260904060317 80 311 2.0 2.0 0.00 0.00 0.00 82 1013.5
20260904055812 80 289 1.0 2.0 0.00 0.00 0.00 82 1013.7
20260904055307 80 297 1.0 2.0 0.00 0.00 0.00 82 1013.7
20260904054802 80 232 1.0 3.0 0.00 0.00 0.00 81 1013.7
20260904054259 80 50 0.0 2.0 0.00 0.00 0.00 81 1013.7
20260904053754 80 198 2.0 2.0 0.00 0.00 0.00 81 1013.7
20260904053253 80 326 3.0 4.0 0.00 0.00 0.00 81 1013.6
20260904052750 80 273 2.0 2.0 0.00 0.00 0.00 81 1013.8
20260904052245 80 281 0.0 2.0 0.00 0.00 0.00 80 1013.7
20260904051743 80 322 2.0 2.0 0.00 0.00 0.00 80 1013.4
20260904051242 81 283 0.0 3.0 0.00 0.00 0.00 80 1013.7
20260904050737 81 211 2.0 3.0 0.00 0.00 0.00 79 1013.6
20260904050235 81 242 0.0 2.0 0.00 0.00 0.00 79 1013.6
20260904045734 81 281 2.0 3.0 0.00 0.00 0.00 78 1013.6
20260904045229 81 196 2.0 4.0 0.00 0.00 0.00 78 1013.7
20260904044724 81 328 2.0 5.0 0.00 0.00 0.00 78 1013.5
20260904044220 81 305 0.0 3.0 0.00 0.00 0.00 78 1013.5
20260904043717 81 181 2.0 3.0 0.00 0.00 0.00 78 1013.6
20260904043213 81 289 1.0 3.0 0.00 0.00 0.00 78 1013.7
20260904042708 81 325 0.0 4.0 0.00 0.00 0.00 79 1013.6
20260904042205 81 347 0.0 3.0 0.00 0.00 0.00 78 1013.6
20260904041704 81 336 0.0 3.0 0.00 0.00 0.00 78 1013.7
20260904041200 81 305 1.0 3.0 0.00 0.00 0.00 77 1013.9
20260904040656 81 265 2.0 3.0 0.00 0.00 0.00 77 1013.6
20260904040152 81 280 2.0 4.0 0.00 0.00 0.00 76 1013.7
20260904035647 82 347 0.0 2.0 0.00 0.00 0.00 76 1013.9
20260904035142 82 321 1.0 4.0 0.00 0.00 0.00 76 1013.7
20260904034641 82 93 1.0 4.0 0.00 0.00 0.00 76 1013.8
20260904034137 82 293 3.0 4.0 0.00 0.00 0.00 75 1013.8
20260904033633 82 99 0.0 2.0 0.00 0.00 0.00 74 1013.7
20260904033130 82 297 2.0 2.0 0.00 0.00 0.00 73 1013.7
20260904032625 82 290 1.0 2.0 0.00 0.00 0.00 73 1013.9
20260904032124 82 315 0.0 3.0 0.00 0.00 0.00 72 1013.9
20260904031623 82 175 3.0 3.0 0.00 0.00 0.00 72 1013.8
20260904031120 82 224 2.0 3.0 0.00 0.00 0.00 72 1014.0
20260904030615 82 256 3.0 3.0 0.00 0.00 0.00 72 1013.8
20260904030110 82 324 0.0 3.0 0.00 0.00 0.00 72 1013.6
20260904025606 82 280 0.0 2.0 0.00 0.00 0.00 72 1013.7
20260904025101 82 340 1.0 3.0 0.00 0.00 0.00 72 1013.4
20260904024557 82 290 1.0 3.0 0.00 0.00 0.00 72 1013.5
20260904024052 82 307 1.0 3.0 0.00 0.00 0.00 72 1013.5
20260904023543 83 297 1.0 4.0 0.00 0.00 0.00 72 1013.4
20260904023038 83 330 2.0 3.0 0.00 0.00 0.00 73 1013.3
20260904022532 83 62 0.0 2.0 0.00 0.00 0.00 73 1013.2
20260904022029 83 212 0.0 2.0 0.00 0.00 0.00 72 1013.2
20260904021525 83 341 3.0 3.0 0.00 0.00 0.00 72 1012.8
20260904021020 83 293 0.0 5.0 0.00 0.00 0.00 72 1012.7
20260904020520 83 349 2.0 3.0 0.00 0.00 0.00 73 1012.8
20260904020015 83 351 0.0 5.0 0.00 0.00 0.00 72 1012.6
20260904015509 83 327 2.0 4.0 0.00 0.00 0.00 73 1012.7
20260904015008 83 317 1.0 4.0 0.00 0.00 0.00 75 1012.7
20260904014502 83 304 0.0 3.0 0.00 0.00 0.00 76 1012.6
20260904013958 84 341 2.0 5.0 0.00 0.00 0.00 76 1012.6
20260904013455 84 286 1.0 5.0 0.00 0.00 0.00 75 1012.4
20260904012951 84 192 2.0 3.0 0.00 0.00 0.00 75 1012.4
20260904012450 84 274 2.0 2.0 0.00 0.00 0.00 75 1012.2
20260904011944 84 328 2.0 5.0 0.00 0.00 0.00 75 1012.3
20260904011438 85 286 2.0 3.0 0.00 0.00 0.00 75 1012.2
20260904010929 85 330 3.0 3.0 0.00 0.00 0.00 75 1012.2
20260904010425 85 294 2.0 4.0 0.00 0.00 0.00 74 1012.3
20260904005919 85 279 2.0 3.0 0.00 0.00 0.00 73 1012.1
20260904005416 85 309 3.0 3.0 0.00 0.00 0.00 73 1012.2
20260904004916 86 329 3.0 6.0 0.00 0.00 0.00 72 1012.2
20260904004413 86 330 2.0 3.0 0.00 0.00 0.00 70 1012.1
20260904003912 86 267 2.0 3.0 0.00 0.00 0.00 69 1012.1
20260904003408 86 304 2.0 4.0 0.00 0.00 0.00 68 1011.9
20260904002903 86 315 1.0 4.0 0.00 0.00 0.00 67 1012.1
20260904002400 87 320 2.0 4.0 0.00 0.00 0.00 66 1012.0
20260904001859 87 337 4.0 4.0 0.00 0.00 0.00 70 1012.2
20260904001354 88 298 2.0 4.0 0.00 0.00 0.00 69 1012.1
20260904000849 88 310 0.0 3.0 0.00 0.00 0.00 68 1011.9
20260904000349 88 295 4.0 5.0 0.00 0.00 0.00 68 1012.1
20260903235848 89 262 4.0 4.0 0.00 0.00 0.00 67 1011.9
20260903235344 89 282 3.0 3.0 0.00 0.00 0.00 67 1011.8
20260903234843 89 326 3.0 4.0 0.00 0.00 0.00 67 1012.0
20260903234340 89 294 5.0 5.0 0.00 0.00 0.00 66 1011.9
20260903233836 91 265 5.0 5.0 0.00 0.00 0.00 65 1011.9
20260903233332 90 261 3.0 3.0 0.00 0.00 0.00 65 1011.7
20260903232831 91 335 1.0 4.0 0.00 0.00 0.00 65 1011.6
20260903232327 92 272 2.0 3.0 0.00 0.00 0.00 64 1011.9
20260903231826 91 314 2.0 4.0 0.00 0.00 0.00 65 1012.0
20260903231321 92 320 3.0 5.0 0.00 0.00 0.00 64 1011.6
20260903230816 92 308 3.0 4.0 0.00 0.00 0.00 63 1011.8
20260903230312 90 289 2.0 5.0 0.00 0.00 0.00 66 1011.7
20260903225808 91 232 1.0 5.0 0.00 0.00 0.00 65 1011.7
20260903225306 91 292 5.0 8.0 0.00 0.00 0.00 65 1011.7
20260903224800 92 289 0.0 3.0 0.00 0.00 0.00 64 1011.5
20260903224255 93 256 4.0 7.0 0.00 0.00 0.00 62 1011.5
20260903223751 92 257 2.0 8.0 0.00 0.00 0.00 61 1011.5
20260903223249 93 306 2.0 4.0 0.00 0.00 0.00 60 1011.5
20260903222745 93 314 3.0 4.0 0.00 0.00 0.00 60 1011.6
20260903222243 94 273 2.0 5.0 0.00 0.00 0.00 59 1011.4
20260903221739 93 340 4.0 4.0 0.00 0.00 0.00 60 1011.3
20260903221237 92 308 3.0 4.0 0.00 0.00 0.00 61 1011.3
20260903220736 93 273 4.0 6.0 0.00 0.00 0.00 60 1011.5
20260903220231 92 306 3.0 8.0 0.00 0.00 0.00 62 1011.6
20260903215729 92 301 4.0 5.0 0.00 0.00 0.00 61 1011.7
20260903215225 93 225 3.0 3.0 0.00 0.00 0.00 62 1011.6
20260903214723 93 259 5.0 5.0 0.00 0.00 0.00 62 1011.8
20260903214220 92 269 3.0 4.0 0.00 0.00 0.00 62 1012.0
20260903213714 93 307 3.0 5.0 0.00 0.00 0.00 61 1012.0
20260903213210 93 293 2.0 5.0 0.00 0.00 0.00 62 1012.1
20260903212706 92 277 3.0 4.0 0.00 0.00 0.00 63 1012.2
20260903212202 92 302 5.0 6.0 0.00 0.00 0.00 63 1012.2
20260903211655 93 17 2.0 4.0 0.00 0.00 0.00 62 1012.3
20260903211152 92 224 4.0 5.0 0.00 0.00 0.00 63 1012.2
20260903210648 93 327 2.0 3.0 0.00 0.00 0.00 62 1012.2
20260903210143 92 294 2.0 5.0 0.00 0.00 0.00 64 1012.1
20260903205643 91 277 2.0 4.0 0.00 0.00 0.00 66 1012.2
20260903205142 90 293 4.0 6.0 0.00 0.00 0.00 67 1012.3
20260903204638 91 307 3.0 5.0 0.00 0.00 0.00 66 1012.4